Regional Weather Roundup
Issued by NWS

Home | Current Version | Previous Version | Graphics & Text | Print | Product List | Glossary On
Versions: 1 2 3 4 5 6 7 8 9 10 11 12 13 14 15 16 17 18 19 20 21 22 23 24 25 26 27 28 29 30 31 32 33 34 35 36 37 38 39 40 41 42 43 44 45 46 47 48 49 50
000
ASUS43 KLOT 081503
RWRIL

ILLINOIS REGIONAL WEATHER ROUNDUP
NATIONAL WEATHER SERVICE CHICAGO/ROMEOVILLE IL
900 AM CST MON FEB 08 2016

NOTE: "FAIR" INDICATES FEW OR NO CLOUDS BELOW 12,000 FEET WITH NO
SIGNIFICANT WEATHER AND/OR OBSTRUCTIONS TO VISIBILITY.

* THESE STATIONS ARE NOT UNDER NWS QUALITY CONTROL. THEY ALSO MAY NOT
  REPORT WEATHER SUCH AS PRECIPITATION OR FOG.

ILZ001-002-007-009-015-016-024-081600-
NORTHWEST ILLINOIS

CITY           SKY/WX    TMP DP  RH WIND       PRES   REMARKS
MOLINE         LGT SNOW  20  12  71 NW16G23   29.77S WCI   6
STERLING*      CLOUDY    21  14  73 W13       29.70R WCI   9
$$

ILZ003-004-008-010-011-017-018-081600-
NORTH CENTRAL ILLINOIS

CITY           SKY/WX    TMP DP  RH WIND       PRES   REMARKS
ROCKFORD       LGT SNOW  24  19  81 W13       29.70R WCI  12
FREEPORT*      CLOUDY    21  17  82 NW14G21   29.71R HAZE    WCI   8
DE KALB*       CLOUDY    26  22  83 W16       29.67R WCI  14
$$

ILZ005-006-012>014-019>023-081600-
NORTHEAST ILLINOIS

CITY           SKY/WX    TMP DP  RH WIND       PRES   REMARKS
CHICAGO-OHARE  FLURRIES  29  23  78 W12       29.64R WCI  19
CHICAGO-MIDWAY CLOUDY    31  20  63 W14       29.65R WCI  21
AURORA         CLOUDY    27  22  81 W17       29.68R WCI  14
LANSING*       LGT SNOW  30  27  86 W12       29.66R WCI  21
WAUKEGAN       CLOUDY    28  25  88 W8        29.62R WCI  20
DUPAGE AIRPORT CLOUDY    28  20  71 W14       29.65R WCI  17
WHEELING       CLOUDY    29  22  75 W12       29.65R WCI  19
$$

LMZ740>746-081600-
SOUTHERN LAKE MICHIGAN

STATION/POSITION SKY/WX   TEMP    WIND        PRES    VSBY  WAVE
                          AIR SEA DIR/SP/G                  HT/PER
                          (F)     (DEG/KT/KT) (MB)    (MI)  (FT/S)
HARRISON CRIB              31     290/ 12/ 13   N/A
BURNHAM HARBOR             31     280/ 12/ 15   N/A
CALUMET HARBOR             32     260/  7/ 12 1003.1R
BURNS HARBOR               33     230/ 10/ 12 1004.4R
MICHIGAN CITY              31     200/  8/ 10   N/A
$$

ILZ025>027-034>036-040-047-049-050-058-095>099-081600-
WEST-CENTRAL ILLINOIS

CITY           SKY/WX    TMP DP  RH WIND       PRES   REMARKS
QUINCY         LGT SNOW  20  13  74 NW29G37   29.84R WCI   1
MACOMB*        FLURRIES  21  16  79 NW17      29.83R WCI   7
$$

ILZ028>032-037-038-041>044-048-051>054-059>061-081600-
CENTRAL ILLINOIS

CITY           SKY/WX    TMP DP  RH WIND       PRES   REMARKS
BLOOMINGTON    LGT SNOW  23  21  92 W23       29.74R VSB 1   WCI   7
DECATUR        CLOUDY    27  18  69 NW18G24   29.75R WCI  14
PEORIA         CLOUDY    22  11  62 W17G26    29.77R WCI   8
LINCOLN*       LGT SNOW  25  19  77 NW12G21   29.78R WCI  14
SPRINGFIELD    LGT SNOW  25  18  74 NW15G26   29.79S WCI  13
TAYLORVILLE    NOT AVBL
$$

ILZ033-039-045-046-055>057-062-063-081600-
EAST-CENTRAL ILLINOIS

CITY           SKY/WX    TMP DP  RH WIND       PRES   REMARKS
CHAMPAIGN      FLURRIES  28  20  71 NW22G33   29.72R WCI  14
MATTOON        HVY SNOW  30  27  88 NW26G35   29.72R VSB 1/4 WCI  16
$$

ILZ079-100>102-081600-
SOUTHWEST ILLINOIS

CITY           SKY/WX    TMP DP  RH WIND       PRES   REMARKS
ALTON          LGT SNOW  27  23  86 W17G24    29.83R WCI  14
BELLEVILLE     LGT SNOW  32  21  64 NW22G30   29.81R WCI  19
CAHOKIA*       FLURRIES  31  17  56 NW20G32   29.84R WCI  19
SPARTA*        CLOUDY    32  18  56 NW13G21   29.83R WCI  22
$$

ILZ064>066-069>071-074>076-080>082-084>086-088>090-092>094-081600-
SOUTH-CENTRAL ILLINOIS

CITY           SKY/WX    TMP DP  RH WIND       PRES   REMARKS
CARBONDALE     CLOUDY    35  17  47 NW21G28   29.82R WCI  24
MARION         CLOUDY    37  19  48 W17G25    29.82R WCI  28
MT. VERNON     CLOUDY    34  19  55 W10G24    29.79R WCI  26
CENTRALIA*     CLOUDY    32  28  85 W21G30    29.79R FOG     WCI  20
SALEM*         LGT SNOW  33  28  80 NW22G28   29.77R WCI  21
$$

ILZ067-068-072-073-078-083-087-091-081600-
SOUTHEAST ILLINOIS

CITY           SKY/WX    TMP DP  RH WIND       PRES   REMARKS
LAWRENCEVILLE  CLOUDY    34  33  96 W6        29.74R WCI  29
HARRISBURG*    CLOUDY    35  27  71 W15G21    29.81R WCI  26
ROBINSON*      CLOUDY    35  32  90 W13       29.73S WCI  26
CARMI*         CLOUDY    37  32  84 W14       29.77R WCI  28
$$

ABBREVIATIONS USED IN REMARKS
   TC - TEMPERATURE IN CELSIUS
  WCI - WIND CHILL INDEX
   HX - HEAT INDEX
  VSB - VISIBILITY
$$





USA.gov is the U.S. government's official web portal to all federal, state and local government web resources and services.